Printer-friendly version

IAU Minor Planet Center

Minor Planet Center

MPEC 2006-O22 : 2006 OK3

The following Minor Planet Electronic Circular may be linked-to from your own Web pages, but must not otherwise be redistributed electronically.


Read MPEC 2006-O21 Read MPEC 2006-O23


M.P.E.C. 2006-O22                                Issued 2006 July 22, 20:08 UT

     The Minor Planet Electronic Circulars contain information on unusual
         minor planets and routine data on comets.  They are published
   on behalf of Commission 20 of the International Astronomical Union by the
          Minor Planet Center, Smithsonian Astrophysical Observatory,
                          Cambridge, MA 02138, U.S.A.

                  Supported in part by the Brinson Foundation
                  Supported in part by the TABASGO Foundation
             Prepared using the Tamkin Foundation Computer Network

                              MPC@CFA.HARVARD.EDU
          URL http://cfa-www.harvard.edu/iau/mpc.html  ISSN 1523-6714

                                   2006 OK3

Observations:
     K06O03K* C2006 07 22.59315 20 46 47.10 -39 54 27.1          17.2 V EO022E12
     K06O03K  C2006 07 22.59358 20 46 48.36 -39 54 08.2          17.4 V EO022E12
     K06O03K  C2006 07 22.59399 20 46 49.62 -39 53 49.7          17.5 V EO022E12
     K06O03K  C2006 07 22.60145 20 47 11.36 -39 48 20.9          17.3 V EO022E12
     K06O03K  C2006 07 22.60188 20 47 12.62 -39 48 01.8          17.5 V EO022E12
     K06O03K  C2006 07 22.60230 20 47 13.92 -39 47 42.5          17.4 V EO022E12
     K06O03K  C2006 07 22.60272 20 47 15.10 -39 47 24.4          17.4 V EO022E12
     K06O03K  C2006 07 22.60314 20 47 16.33 -39 47 05.6          17.6 V EO022E12
     K06O03K  C2006 07 22.60385 20 47 18.45 -39 46 33.2          17.6 V EO022E12
     K06O03K  C2006 07 22.60429 20 47 19.71 -39 46 13.8          17.6 V EO022E12
     K06O03K  C2006 07 22.60471 20 47 20.97 -39 45 54.8          17.4 V EO022E12
     K06O03K  C2006 07 22.60513 20 47 22.20 -39 45 35.8          17.6 V EO022E12
     K06O03K  C2006 07 22.60556 20 47 23.46 -39 45 16.7          17.5 V EO022E12
     K06O03K  C2006 07 22.60676 20 47 27.02 -39 44 22.3          17.4 V EO022E12
     K06O03K  C2006 07 22.60718 20 47 28.24 -39 44 04.2          17.4 V EO022E12
     K06O03K  C2006 07 22.60759 20 47 29.50 -39 43 44.4          17.3 V EO022E12
     K06O03K  C2006 07 22.60802 20 47 30.73 -39 43 25.7          17.4 V EO022E12
     K06O03K  C2006 07 22.65069 20 49 42.85 -39 08 59.2          17.5 V EO022E12
     K06O03K  C2006 07 22.65093 20 49 43.64 -39 08 46.7          17.6 V EO022E12
     K06O03K  C2006 07 22.65141 20 49 45.22 -39 08 23.1          17.1 V EO022E12
     K06O03K  C2006 07 22.65165 20 49 45.98 -39 08 10.0          17.2 V EO022E12
     K06O03K  C2006 07 22.65557 20 49 58.76 -39 04 45.9          17.1 V EO022E12
     K06O03K  C2006 07 22.65582 20 49 59.59 -39 04 33.2          16.8 V EO022E12
     K06O03K  C2006 07 22.65606 20 50 00.34 -39 04 21.3          16.7 V EO022E12
     K06O03K  C2006 07 22.65630 20 50 01.14 -39 04 07.5          17.1 V EO022E12
     K06O03K  C2006 07 22.65655 20 50 01.93 -39 03 55.2          17.4 V EO022E12
     K06O03K  C2006 07 22.81855 21 00 58.24 -36 01 47.2          16.8 V EO022E12
     K06O03K  C2006 07 22.81887 21 00 59.72 -36 01 21.4          16.8 V EO022E12
     K06O03K  C2006 07 22.81917 21 01 01.20 -36 00 56.7          16.9 V EO022E12

Observer details:
E12 Siding Spring Survey.  Observer R. H. McNaught.  Measurers E. C. Beshore,
    E. J. Christensen, G. J. Garradd, A. R. Gibbs, A. D. Grauer, R. E. Hill,
    R. A. Kowalski, S. M. Larson, R. H. McNaught.  0.5-m Uppsala Schmidt + CCD.

Orbital elements:
2006 OK3                                                 Earth MOID = 0.0008 AU
Epoch 2006 Sept. 22.0 TT = JDT 2454000.5                MPC
M   6.23358              (2000.0)            P               Q
n   0.45688059     Peri.   66.79529     +0.97469508     -0.13037349
a   1.6695557      Node   300.25660     +0.02628729     +0.87352342
e   0.5160015      Incl.   12.13520     +0.22198756     +0.46899849
P   2.16           H   27.0           G   0.15           U   6
Residuals in seconds of arc
060722 E12  0.6-  0.6-    060722 E12  0.1+  0.1+    060722 E12  0.1-  0.0
060722 E12  0.4-  0.4-    060722 E12  0.1-  0.2+    060722 E12  0.2+  0.4+
060722 E12  0.4+  0.2+    060722 E12  0.2-  0.1-    060722 E12  0.4+  0.0
060722 E12  0.0   0.0     060722 E12  0.1-  0.1+    060722 E12  0.1-  0.7-
060722 E12  0.1-  0.1-    060722 E12  0.4-  0.9-    060722 E12  0.1+  0.6+
060722 E12  0.7+  0.5+    060722 E12  0.1+  0.3+    060722 E12  0.2-  0.3-
060722 E12  0.1+  0.2-    060722 E12  0.5-  0.5-    060722 E12  1.2+  1.2+
060722 E12  0.0   0.2-    060722 E12  0.4-  0.3+    060722 E12  0.4-  0.3-
060722 E12  0.3+  0.3+    060722 E12  0.2-  0.4+    060722 E12  0.8-  1.2-
060722 E12  0.2-  0.0     060722 E12  0.1+  0.7-

Ephemeris:
2006 OK3                 a,e,i = 1.67, 0.52, 12                  q = 0.8081
Date    TT    R. A. (2000) Decl.     Delta      r     Elong.  Phase     V
2006 07 19.0  19 59.56   -48 02.6    0.0376   1.050   152.8    26.2    21.2
2006 07 19.2  20 00.19   -47 57.7    0.0359   1.048   152.9    26.2    21.1
2006 07 19.4  20 00.87   -47 52.3    0.0342   1.047   152.9    26.2    21.0
2006 07 19.6  20 01.62   -47 46.2    0.0325   1.045   153.0    26.2    20.8
2006 07 19.8  20 02.44   -47 39.4    0.0308   1.044   153.1    26.1    20.7
2006 07 20.0  20 03.36   -47 31.8    0.0291   1.042   153.2    26.1    20.6
2006 07 20.2  20 04.38   -47 23.1    0.0274   1.041   153.3    26.0    20.5
2006 07 20.4  20 05.53   -47 13.2    0.0258   1.039   153.4    26.0    20.3
2006 07 20.6  20 06.83   -47 01.8    0.0241   1.038   153.6    25.9    20.2
2006 07 20.8  20 08.31   -46 48.6    0.0224   1.036   153.7    25.7    20.0
2006 07 21.0  20 10.02   -46 33.1    0.0207   1.035   153.9    25.6    19.8
2006 07 21.2  20 12.00   -46 14.7    0.0190   1.033   154.2    25.4    19.6
2006 07 21.4  20 14.34   -45 52.5    0.0174   1.032   154.5    25.1    19.4
2006 07 21.6  20 17.14   -45 25.3    0.0157   1.030   154.8    24.8    19.2
2006 07 21.8  20 20.53   -44 51.3    0.0140   1.029   155.3    24.4    18.9

2006 07 22.0  20 24.75   -44 07.4    0.0123   1.027   155.9    23.9    18.6
2006 07 22.1  20 27.27   -43 40.4    0.0115   1.027   156.2    23.5    18.5
2006 07 22.2  20 30.13   -43 09.0    0.0107   1.026   156.6    23.2    18.3
2006 07 22.3  20 33.41   -42 31.9    0.00986  1.025   157.0    22.8    18.1
2006 07 22.4  20 37.20   -41 47.6    0.00903  1.024   157.5    22.3    17.9
2006 07 22.5  20 41.64   -40 53.7    0.00821  1.024   158.1    21.8    17.7
2006 07 22.6  20 46.91   -39 47.1    0.00739  1.023   158.7    21.2    17.4
2006 07 22.7  20 53.24   -38 22.7    0.00658  1.022   159.3    20.6    17.2
2006 07 22.8  21 00.99   -36 33.0    0.00578  1.021   159.9    20.0    16.9
2006 07 22.9  21 10.66   -34 05.4    0.00499  1.021   160.4    19.5    16.5
2006 07 23.0  21 23.04   -30 39.0    0.00422  1.020   160.2    19.7    16.2
2006 07 23.1  21 39.32   -25 36.2    0.00348  1.019   158.5    21.4    15.8
2006 07 23.2  22 01.43   -17 49.1    0.00281  1.018   153.4    26.5    15.5
2006 07 23.3  22 32.46   -05 26.6    0.00225  1.018   142.4    37.6    15.3
2006 07 23.4  23 17.07   +13 03.0    0.00192  1.017   123.3    56.6    15.5
2006 07 23.5  00 20.29   +34 07.1    0.00192  1.016    99.6    80.3    16.3
2006 07 23.6  01 40.91   +49 25.2    0.00227  1.016    79.6   100.3    17.5
2006 07 23.7  03 03.47   +56 40.4    0.00283  1.015    66.3   113.6    18.7
2006 07 23.8  04 10.42   +59 00.8    0.00351  1.014    57.8   122.0    19.8
2006 07 23.9  04 58.10   +59 16.2    0.00424  1.013    52.3   127.5    20.6
2006 07 24.0  05 31.12   +58 48.2    0.00501  1.013    48.5   131.3    21.4

Gareth V. Williams           (C) Copyright 2006 MPC           M.P.E.C. 2006-O22

Read MPEC 2006-O21 Read MPEC 2006-O23


Our Web policy. Index to the CBAT/MPC/ICQ pages.


Valid HTML 4.01!